Theta_e
354 354 354 349 328 326 319 322 329 328 327 333 333 329 329 333 328 324 348 352 353 352 356 359 364 363 362 363 363 363 363 364 362 361 361 362 362 361 361 358 358 360 358 355 355 356 357 357 357
354 353 352 337 325 317 320 326 325 329 332 335 335 334 331 330 338 340 345 352 354 354 356 357 364 364 363 364 364 364 363 364 362 362 361 362 362 361 359 358 360 360 357 356 354 356 356 359 357
354 350 338 332 327 322 320 328 331 334 334 331 334 338 335 333 340 343 350 352 354 353 356 359 364 364 363 362 363 363 363 362 362 361 360 360 360 360 359 360 358 359 358 358 357 355 356 358 358
349 347 343 326 321 326 325 331 332 332 334 336 336 332 338 342 343 347 352 353 354 354 354 361 363 363 362 364 363 362 362 362 362 360 361 361 360 360 361 361 360 359 358 358 356 357 356 355 354
349 343 328 324 322 326 331 335 337 330 333 335 336 331 332 341 346 350 352 352 351 350 355 358 365 364 363 362 360 360 359 360 360 361 361 361 360 361 361 361 360 358 358 357 356 356 356 356 356
337 339 324 318 319 328 334 337 338 336 336 335 334 333 332 344 345 349 352 351 348 349 351 356 362 364 363 360 362 362 362 362 362 362 362 361 361 362 361 361 359 357 357 358 357 356 356 356 356
333 332 324 322 321 325 331 339 336 336 335 334 339 332 334 339 346 349 350 349 347 349 351 355 359 362 361 361 361 361 362 362 362 361 362 361 361 361 362 361 360 359 358 358 357 356 354 356 356
340 336 323 324 321 325 334 335 339 338 335 342 341 331 330 341 345 348 348 347 347 348 351 353 359 361 359 359 362 362 362 362 363 362 361 362 362 361 361 361 360 359 358 358 357 357 356 357 359
343 330 323 323 323 328 334 331 337 343 337 337 338 337 341 344 346 345 344 344 346 347 350 351 353 360 359 357 361 361 363 362 362 361 361 363 359 360 360 359 359 359 358 358 357 356 356 359 359
332 327 325 330 332 330 334 336 338 336 335 334 335 340 344 345 342 342 341 340 343 345 347 348 351 356 356 354 359 360 358 358 360 361 363 359 361 360 358 359 358 359 359 359 358 357 356 358 354
329 323 331 332 334 332 335 336 340 335 332 336 334 337 342 343 343 342 342 343 344 346 346 347 353 357 355 358 356 356 357 358 360 363 362 360 359 359 358 357 356 357 358 356 356 356 356 355 355
321 328 333 333 335 331 332 338 335 337 337 342 340 340 341 342 342 342 342 344 344 346 345 348 354 357 357 356 354 355 354 355 355 359 364 362 358 360 359 358 357 362 362 357 361 357 359 359 358
320 324 329 334 335 332 333 333 333 335 341 343 341 340 340 341 341 343 343 345 345 343 345 350 355 358 358 359 355 354 355 355 356 359 361 362 362 361 361 361 360 363 361 357 358 358 358 359 357
315 319 324 328 330 330 329 332 334 337 341 340 339 339 340 340 341 342 342 343 344 345 346 351 354 358 359 358 360 357 358 359 358 359 360 364 365 366 359 358 360 359 360 358 358 359 358 358 358
315 312 316 319 327 325 331 326 330 339 340 338 338 339 339 341 342 341 343 344 345 346 347 350 353 355 358 358 359 356 357 357 357 359 365 363 365 366 362 358 360 358 361 363 359 358 360 352 353
308 310 308 317 324 326 330 321 334 339 338 337 338 338 338 340 341 343 344 344 346 346 348 351 349 350 356 357 356 355 356 356 357 358 360 364 366 366 363 359 360 366 363 358 355 354 352 349 351
306 302 305 317 326 326 328 324 336 339 338 336 338 337 338 339 341 343 344 345 345 347 349 349 350 348 354 357 355 355 358 357 358 359 360 364 366 367 364 361 358 362 359 354 352 352 354 349 348
302 302 306 313 321 326 326 326 334 336 336 336 337 337 338 338 340 344 345 346 345 348 350 351 350 351 355 353 354 353 354 356 357 358 359 364 365 366 367 363 360 359 354 353 354 355 355 352 349
306 305 305 311 322 323 323 326 331 335 335 335 337 337 337 338 343 345 346 346 344 347 349 350 350 352 351 349 347 349 350 354 356 359 362 366 366 366 366 360 360 360 358 357 360 357 355 347 352
305 304 305 311 319 321 322 322 329 335 334 336 337 337 337 339 341 343 345 346 344 346 349 350 351 353 354 348 350 351 353 354 356 359 363 365 365 367 364 366 363 364 356 358 358 359 350 347 349
304 303 305 306 314 319 320 319 321 329 335 335 338 340 339 338 339 341 344 345 346 345 348 350 353 353 354 355 351 355 357 357 356 357 358 361 364 365 366 363 363 364 367 355 358 358 356 345 349
301 306 304 306 307 307 318 309 319 323 329 333 335 337 338 339 341 342 343 344 346 346 349 351 353 354 353 357 357 361 351 349 349 353 355 357 363 363 364 365 362 363 363 359 358 357 358 357 343
303 307 305 304 305 308 313 311 316 324 324 329 334 336 338 340 340 341 343 346 348 349 348 351 353 356 358 359 360 355 356 349 351 351 360 365 364 365 362 365 366 366 360 361 361 358 360 357 352
307 304 304 304 302 298 307 309 312 318 324 329 334 337 339 340 341 343 344 347 348 349 348 349 353 358 357 357 355 360 361 358 351 354 352 353 355 357 363 363 366 366 361 362 362 366 361 361 358
306 302 297 294 294 294 306 305 311 319 327 329 332 336 339 341 343 343 343 344 347 348 349 349 357 359 358 355 355 357 359 361 359 358 353 356 350 351 358 365 365 362 367 364 364 364 363 360 359
305 305 298 293 294 296 303 301 308 319 322 328 330 333 338 340 342 344 345 345 346 348 349 351 357 359 357 357 360 363 364 354 355 358 354 353 351 351 358 361 363 365 364 365 367 365 360 364 359
306 301 308 302 304 300 301 304 313 318 320 323 325 328 332 337 340 342 345 347 347 348 351 354 358 361 361 355 362 363 364 362 356 366 361 356 360 354 357 359 361 361 363 365 367 361 363 364 365
307 311 301 303 295 295 300 302 303 311 317 321 323 324 328 333 338 341 344 346 348 349 350 352 356 359 358 357 358 357 360 361 362 360 361 362 359 360 358 358 357 359 362 364 366 362 364 366 362
304 303 306 306 303 298 297 301 312 313 317 319 322 324 326 328 332 339 343 346 349 350 351 351 352 354 355 358 360 362 358 358 359 357 359 361 362 362 363 360 359 357 359 363 365 364 362 362 365
304 305 305 300 301 304 303 302 315 315 317 321 322 324 326 329 333 337 342 347 348 349 350 351 352 352 354 359 362 360 361 363 357 358 359 361 362 364 363 363 362 360 359 363 364 362 359 361 363
Wind_Speed
13 11 4 3 4 2 2 2 3 6 9 6 12 3 10 8 6 7 22 16 21 18 17 15 13 14 14 13 12 12 12 11 11 11 11 11 11 10 11 10 9 9 10 10 8 10 9 9 11
10 8 1 3 6 4 6 6 4 4 11 14 10 14 6 11 9 18 17 21 20 18 17 16 12 14 14 13 11 12 13 11 11 11 10 10 12 11 11 10 9 9 10 10 9 9 9 11 10
11 5 2 3 3 2 6 8 7 7 15 9 8 7 2 5 11 21 19 23 19 16 16 15 13 13 14 13 11 11 12 11 10 9 9 10 11 12 11 9 10 9 9 9 10 10 9 9 10
8 3 4 4 4 3 2 10 11 12 11 13 10 10 8 6 20 13 24 22 19 17 16 15 14 14 14 13 13 12 12 11 11 10 11 12 13 12 11 11 11 9 9 9 8 9 8 7 6
4 2 5 7 5 2 4 5 11 13 12 11 8 8 7 9 10 24 23 20 19 18 18 15 12 14 14 13 12 12 12 11 11 12 12 13 12 12 10 12 11 9 7 8 7 8 9 8 8
4 5 6 2 5 5 6 4 15 10 8 11 8 11 6 11 17 23 21 20 19 17 17 16 12 12 13 13 12 10 11 11 11 10 11 11 12 11 11 11 10 9 8 7 6 6 7 7 6
4 5 3 6 5 5 10 10 11 11 10 10 7 6 9 16 21 21 20 18 18 16 16 13 14 13 12 11 11 12 12 11 12 11 11 11 12 11 11 10 9 9 8 8 7 6 6 7 6
5 5 4 6 4 9 8 9 5 11 8 9 7 8 12 21 20 21 19 18 17 15 14 12 11 12 11 12 10 10 13 12 12 12 11 12 12 11 11 10 8 8 7 8 8 7 6 7 10
8 6 5 6 7 9 9 6 9 6 10 4 8 3 22 25 22 22 20 18 14 14 14 13 12 11 9 11 11 12 12 11 12 11 8 11 8 9 10 10 7 7 8 7 7 7 6 9 9
9 7 3 4 3 4 12 11 12 10 12 9 8 15 28 26 21 23 22 19 18 16 15 12 12 12 10 8 9 9 10 9 7 7 5 5 6 6 9 9 7 6 8 8 7 7 5 12 9
11 5 6 4 4 5 11 8 10 10 10 12 16 26 28 27 24 23 21 19 19 17 13 13 10 10 10 9 7 5 5 6 6 6 6 6 5 6 4 6 6 6 6 7 9 8 5 6 4
10 12 8 4 5 4 3 10 8 10 11 13 18 26 29 28 25 24 22 20 19 17 15 13 12 10 8 7 6 6 6 5 6 7 5 4 4 3 3 3 5 3 2 5 2 4 4 4 3
16 8 9 10 8 1 5 8 3 8 6 14 21 26 28 25 24 21 20 19 18 17 15 14 13 11 9 7 6 6 6 6 6 6 6 3 3 4 3 3 3 2 3 5 4 4 3 3 4
5 17 11 7 9 5 7 8 8 6 9 16 21 26 27 26 25 21 21 20 18 17 16 15 14 12 10 8 7 5 5 6 5 5 5 4 2 4 3 5 3 4 3 4 5 3 3 2 3
12 10 13 18 15 8 14 11 12 13 13 16 19 22 25 24 24 22 20 19 18 16 16 16 14 13 11 9 8 6 6 6 6 5 5 3 4 6 4 4 3 4 4 4 5 5 3 4 4
14 17 14 17 16 9 13 15 12 13 15 16 19 20 23 24 24 21 20 18 18 17 17 16 13 14 12 9 8 6 6 5 5 5 5 4 3 3 4 3 3 5 3 3 5 5 5 4 4
11 13 19 14 16 12 14 8 12 14 14 16 18 20 21 22 23 21 20 19 18 17 17 16 15 14 13 10 8 7 6 5 5 4 4 5 3 1 3 3 4 5 3 4 4 4 2 3 4
15 19 17 18 15 19 16 6 13 14 15 17 17 19 21 23 24 22 21 19 18 17 17 16 14 13 12 8 7 7 7 6 5 4 4 5 3 3 2 4 3 4 3 5 4 3 3 2 2
10 11 17 16 10 17 18 16 16 14 14 16 18 19 20 22 22 21 21 20 20 19 18 17 16 14 11 9 10 9 8 7 6 5 4 6 5 5 4 7 4 3 5 1 3 4 4 4 2
14 12 14 11 15 14 17 17 13 18 15 16 18 19 20 21 23 22 22 21 21 20 19 18 17 15 12 10 9 8 7 7 6 4 5 6 7 6 4 1 5 7 3 5 4 3 3 5 3
19 18 13 14 15 13 16 17 16 17 15 15 16 17 18 21 23 24 23 23 22 22 21 19 18 17 14 12 9 7 7 4 7 6 7 7 8 8 5 5 2 4 4 4 5 5 4 5 3
19 18 15 12 11 14 20 14 20 18 19 19 19 20 21 22 22 23 24 25 24 23 21 20 19 17 16 15 12 12 10 10 8 6 6 6 7 7 7 6 5 4 5 4 4 3 1 5 5
17 11 15 18 16 17 15 14 12 23 19 21 21 22 22 23 24 25 27 26 25 23 22 20 19 17 16 16 13 12 12 9 8 7 7 7 6 7 7 7 7 6 5 4 4 4 3 3 4
9 12 15 15 16 19 22 16 17 16 19 21 21 22 23 24 25 24 24 24 22 22 21 21 20 17 18 17 18 15 13 11 9 9 8 7 7 8 8 8 7 6 4 5 5 6 5 4 3
16 17 11 12 16 17 22 22 15 7 21 19 20 22 23 23 23 24 24 24 24 25 24 22 21 20 20 20 18 18 16 15 12 10 10 8 8 7 8 9 8 8 8 6 4 5 4 6 4
22 19 13 18 15 16 22 18 22 23 2 13 18 19 21 22 22 24 25 24 24 26 26 24 22 22 22 21 18 16 17 13 12 13 10 9 8 7 8 10 10 9 8 8 7 6 6 6 6
16 24 21 23 9 12 16 21 15 18 23 17 13 12 18 20 23 25 25 25 25 25 25 25 22 22 22 23 17 17 16 16 14 13 12 11 9 7 7 10 11 10 10 9 8 8 7 5 6
20 11 20 16 20 19 14 18 16 23 17 20 21 18 16 18 21 22 23 26 24 25 25 26 24 23 22 23 19 18 18 17 15 13 14 12 11 11 9 10 11 11 10 10 9 8 8 7 7
16 17 16 17 17 15 16 12 11 16 21 21 15 16 17 17 17 20 21 24 25 23 24 25 25 25 23 22 20 19 18 19 17 16 15 14 13 12 12 11 10 11 11 11 10 9 8 8 9
12 14 26 15 23 17 18 13 7 5 17 14 18 16 17 18 14 16 19 21 23 25 24 25 25 25 24 21 20 21 19 18 18 17 17 15 14 14 13 12 12 12 12 11 11 11 9 10 11
Wind_Direction
166 179 179 218 230 255 250 87 307 119 124 95 134 98 106 17 354 81 133 153 138 142 138 143 132 130 129 122 124 122 120 120 127 129 131 135 135 125 109 108 115 98 96 94 99 97 96 102 95
159 149 140 256 255 180 106 149 113 106 110 135 108 122 152 90 77 127 137 145 146 144 146 136 138 130 130 123 119 120 117 114 119 121 133 135 123 124 116 118 108 95 91 93 97 98 96 95 101
164 154 260 241 277 84 126 140 99 131 129 123 122 33 81 79 120 141 140 146 149 146 132 122 134 135 130 125 120 106 100 111 110 124 126 125 131 126 126 121 104 97 100 92 95 97 97 98 104
173 193 220 259 204 96 127 103 128 150 146 158 126 108 101 31 140 138 146 153 143 140 136 137 141 141 129 120 118 119 114 111 108 116 114 114 118 123 124 108 100 101 95 89 88 93 94 94 105
210 236 245 230 114 225 151 129 153 148 170 159 173 114 85 134 117 145 149 155 145 148 129 145 141 130 126 124 122 122 122 120 115 116 116 113 117 118 114 107 98 96 103 104 100 99 102 97 97
204 244 250 172 125 172 97 174 168 159 151 138 145 123 115 150 160 155 154 154 152 142 142 138 136 129 124 125 124 124 127 120 120 108 115 115 115 113 106 104 107 110 111 118 119 105 108 101 101
252 246 267 109 138 165 138 197 168 153 165 174 126 122 128 156 157 156 158 153 150 145 131 143 143 138 127 127 129 122 110 109 117 118 112 103 106 104 103 106 106 109 120 119 112 113 108 98 99
242 274 222 127 173 125 125 163 238 173 146 103 157 157 158 151 164 157 156 156 156 146 144 144 148 148 151 146 132 122 114 115 113 111 117 116 116 117 119 131 116 117 115 115 122 125 120 108 108
228 253 206 124 221 126 137 146 201 79 143 157 163 142 141 143 174 158 158 161 158 157 157 153 158 156 147 135 123 128 120 122 125 126 131 162 130 141 133 75 112 115 114 117 123 126 131 127 112
228 253 253 43 68 87 167 168 151 164 156 146 138 118 137 152 168 165 165 163 167 163 166 159 164 149 162 141 154 140 141 154 129 122 140 111 108 75 90 99 112 110 119 120 124 124 175 212 141
212 231 260 169 97 349 145 172 163 160 179 163 150 145 153 157 167 169 166 170 169 168 170 162 156 158 169 124 156 157 151 144 138 139 185 109 148 168 136 134 150 143 185 159 171 165 201 48 49
246 223 245 133 148 69 224 131 176 191 55 139 152 157 159 167 170 171 170 170 167 171 170 166 160 168 168 159 179 153 148 159 162 141 162 142 179 146 137 114 102 195 118 130 158 134 86 105 91
227 237 229 235 252 178 208 190 125 186 110 135 148 164 168 171 168 173 170 169 168 174 171 173 168 172 167 187 160 163 145 179 138 165 158 164 152 128 150 129 172 100 163 138 150 123 144 133 138
197 236 246 205 224 179 240 189 197 122 145 145 158 171 173 175 169 173 175 172 172 179 175 174 178 176 175 189 168 166 183 133 181 159 135 186 171 129 171 146 152 141 152 127 138 133 163 124 144
223 241 219 238 237 220 215 205 207 135 154 156 167 173 176 177 171 180 178 176 176 185 174 178 184 179 183 183 180 189 167 170 167 157 161 182 230 127 146 150 186 135 118 136 137 150 184 145 156
223 230 244 207 207 197 220 193 146 165 166 165 169 176 179 181 177 183 180 181 178 184 179 184 191 181 182 183 182 190 173 170 171 169 162 174 179 124 147 168 109 85 214 147 145 166 202 127 122
202 219 221 174 207 199 206 175 151 176 174 166 173 176 182 183 185 183 183 186 178 185 180 188 192 186 182 180 189 197 164 205 180 178 191 146 191 196 114 119 144 171 192 153 144 175 161 131 134
201 223 206 216 191 213 194 176 158 178 181 172 176 177 184 187 188 182 188 187 185 184 182 191 189 189 186 183 199 191 178 196 195 207 214 166 181 194 181 130 146 196 180 161 138 144 82 25 16
300 231 227 216 192 212 221 210 167 182 191 181 180 183 188 191 186 185 191 187 188 189 185 189 192 189 189 193 196 189 194 191 200 212 190 176 184 186 197 133 149 140 230 341 159 160 147 128 144
232 232 227 223 210 220 219 229 211 175 200 195 186 186 189 188 188 191 191 191 193 191 190 189 193 191 197 195 205 202 202 193 205 183 167 185 179 179 184 221 160 148 174 162 190 215 180 121 145
228 230 228 231 192 221 246 231 214 179 205 200 201 190 191 192 191 191 193 196 195 193 194 193 192 190 195 203 197 192 193 215 198 184 188 181 185 185 193 192 274 144 173 196 215 192 250 140 151
231 216 242 244 248 225 213 233 206 198 202 200 198 194 197 193 197 192 195 198 198 198 195 195 196 193 193 195 192 197 200 202 202 203 190 177 196 195 192 190 194 222 202 181 207 195 251 277 141
238 235 217 237 245 258 190 237 229 195 198 203 207 198 197 200 195 197 197 199 200 197 196 195 195 198 198 191 212 194 220 205 199 209 190 225 176 208 205 202 188 196 194 184 181 191 237 192 310
219 232 224 229 235 237 232 219 227 193 200 204 204 205 203 199 199 202 199 199 200 199 198 194 193 197 201 195 201 205 206 226 209 202 199 217 210 197 209 206 203 195 209 195 201 182 202 278 265
209 204 212 205 214 233 219 232 236 229 180 210 199 201 203 205 201 201 199 197 198 199 197 197 192 196 197 201 199 204 210 207 212 207 211 222 214 214 197 211 208 196 201 207 215 193 187 201 225
208 223 223 210 210 221 222 224 220 233 48 218 225 194 203 203 206 203 201 199 197 200 198 199 190 194 195 199 202 201 204 210 215 211 235 219 229 222 218 202 222 213 215 205 201 206 224 171 207
196 219 239 261 266 265 208 217 241 219 223 205 200 215 201 201 204 205 202 202 199 197 199 196 193 195 194 197 199 202 203 217 216 224 213 232 233 240 223 219 219 220 213 216 215 230 204 224 213
258 225 220 235 242 241 228 225 206 215 222 219 224 219 211 212 206 206 203 201 201 199 199 198 198 196 196 195 199 204 207 208 219 216 223 225 230 220 241 212 220 213 210 210 215 227 216 225 232
205 236 234 236 226 236 240 210 229 231 208 216 212 217 222 222 208 208 204 203 203 200 198 199 199 200 202 199 197 204 205 208 211 218 220 221 221 220 221 218 219 217 215 209 211 232 252 222 227
294 264 224 231 218 237 270 225 104 208 211 199 220 230 238 225 213 205 205 201 200 201 199 197 198 200 201 200 197 198 201 205 207 215 220 217 218 215 221 220 216 221 219 215 214 219 230 227 232